World > North America > United States > Minnesota
Hourly regional weather for Balaton, MinnesotaBalaton, Minnesota Regional Hourly Weather

Balaton, Minnesota Regional Weather

regional weather balaton, mnHOURLY REGIONAL WEATHER FOR BALATON, MN
Lat: 44.23N, Lon: 95.87W 
Web Search
Balaton Weather Warning NWS WEATHER ALERT FOR THE BALATON, MN AREA - Issued: 419 AM CST Fri Jan 21 2022 Balaton Weather Warning  

Pass this page to a friend. Tell them to point their camera at the QR Code near the bottom of this page.

Feedback


°F Click to change Balaton hourly weather to Imperial units.Click to change Balaton hourly weather to Metric units. °C
Balaton Weather Map
UTC Time: 1/21/2022, 20:51
Your Time:

Balaton, MN Regional Weather

Expires:202201212100;;593044
ASUS43 KMPX 212010
RWRMN 
WEATHER ROUNDUP FOR MINNESOTA
NATIONAL WEATHER SERVICE TWIN CITIES/CHANHASSEN MN
200 PM CST FRI JAN 21 2022


NOTE: "FAIR" INDICATES FEW OR NO CLOUDS BELOW 12,000 FEET WITH NO
SIGNIFICANT WEATHER AND/OR OBSTRUCTIONS TO VISIBILITY. N/A MEANS
CURRENT SKY AND/OR WEATHER CONDITIONS ARE NOT AVAILABLE.


MNZ071>073-080-081-089-090-097-098-212100-
   Southwest Minnesota   
  
CITY           SKY/WX    TMP DP  RH WIND       PRES   REMARKS
MONTEVIDEO     PTSUNNY   19   7  58 SW13G23   30.02F WCI   7          
GRANITE FALLS  PTSUNNY   22  11  61 S21       30.05F WCI   7          
CANBY          CLOUDY    23  10  56 SW28G44   29.98R WCI   6          
MARSHALL       PTSUNNY   21   9  59 SW32G39   29.97F WCI   2          
REDWOOD FALLS  MOSUNNY   19   8  62 S24G37    30.07F WCI   2          
OLIVIA         MOSUNNY   18   9  68 SW20G26   30.06S WCI   1          
PIPESTONE      PTSUNNY   21   9  58 MISG      30.03F                  
WINDOM         PTSUNNY   18   5  57 S29G40    30.03F WCI  -2          
WORTHINGTON    PTSUNNY   19   6  57 SW33G44   30.06F WCI  -1          
JACKSON        PTSUNNY   18   7  62 S23G33    30.10F WCI   0          
TRACY          CLOUDY    21   6  51 SW35G46   30.00F WCI   2          
SLAYTON        PTSUNNY   19   7  59 S28G37    30.04F WCI   1          
$$

SKY/WX - Weather  TMP - Temperature  DP - Dew Point  RH - Relative Humidity
WIND - Wind Direction/Speed PRES - Barometric Pressure VSB - Visibility
WCI - Wind Chill Index E13G22 Wind - East Wind 13 mph/Gusts of 22 mph